TimeCDT,TemperatureF,Dew PointF,Humidity,Sea Level PressureIn,VisibilityMPH,Wind Direction,Wind SpeedMPH,Gust SpeedMPH,PrecipitationIn,Events,Conditions,WindDirDegrees,DateUTC
12:56 AM,73.9,71.1,91,29.84,10.0,South,13.8,19.6,N/A,,Overcast,180,2013-04-19 05:56:00
1:56 AM,73.9,71.1,91,29.82,10.0,South,16.1,21.9,N/A,,Overcast,180,2013-04-19 06:56:00
2:56 AM,73.9,71.1,91,29.80,10.0,South,12.7,23.0,N/A,,Overcast,180,2013-04-19 07:56:00
3:56 AM,75.0,71.1,87,29.81,10.0,SSW,9.2,25.3,N/A,,Overcast,200,2013-04-19 08:56:00
4:07 AM,75.2,71.6,89,29.84,10.0,SSW,12.7,24.2,N/A,,Overcast,200,2013-04-19 09:07:00
4:23 AM,75.2,71.6,89,29.84,10.0,SSW,11.5,18.4,N/A,,Overcast,200,2013-04-19 09:23:00
4:30 AM,75.2,69.8,83,29.84,10.0,SSW,13.8,20.7,N/A,,Overcast,200,2013-04-19 09:30:00
4:56 AM,75.0,70.0,84,29.80,10.0,SSW,12.7,23.0,N/A,,Overcast,200,2013-04-19 09:56:00
5:56 AM,75.0,70.0,84,29.81,10.0,SW,10.4,18.4,N/A,,Overcast,220,2013-04-19 10:56:00
6:56 AM,75.0,70.0,84,29.81,10.0,SSW,9.2,17.3,N/A,,Overcast,200,2013-04-19 11:56:00
7:33 AM,75.2,71.6,89,29.87,10.0,SSW,12.7,21.9,0.00,,Overcast,200,2013-04-19 12:33:00
7:43 AM,75.2,71.6,89,29.87,10.0,SSW,9.2,18.4,0.00,Rain,Light Rain,210,2013-04-19 12:43:00
7:56 AM,70.0,66.0,87,29.86,10.0,WNW,15.0,26.5,0.00,,Overcast,300,2013-04-19 12:56:00
8:56 AM,60.1,57.0,90,29.91,10.0,NW,12.7,20.7,0.01,,Overcast,320,2013-04-19 13:56:00
9:56 AM,57.9,53.1,84,29.96,10.0,NNW,13.8,26.5,N/A,,Overcast,330,2013-04-19 14:56:00
10:56 AM,57.9,52.0,81,29.97,10.0,NNW,18.4,26.5,0.00,,Overcast,330,2013-04-19 15:56:00
11:14 AM,57.2,51.8,82,30.01,10.0,NNW,16.1,25.3,N/A,,Overcast,330,2013-04-19 16:14:00
11:39 AM,55.4,48.2,77,30.02,10.0,NW,16.1,27.6,N/A,,Overcast,320,2013-04-19 16:39:00
11:56 AM,55.0,46.9,74,29.97,10.0,NNW,15.0,21.9,0.00,Rain,Light Rain,330,2013-04-19 16:56:00
12:56 PM,54.0,48.0,80,29.98,10.0,NNW,13.8,23.0,0.00,Rain,Light Rain,330,2013-04-19 17:56:00
1:54 PM,53.6,48.2,82,30.03,10.0,NNW,12.7,25.3,0.00,,Overcast,330,2013-04-19 18:54:00
1:56 PM,53.1,48.9,86,29.99,10.0,NW,12.7,25.3,0.00,,Overcast,320,2013-04-19 18:56:00
2:38 PM,53.6,48.2,82,30.01,10.0,North,15.0,-,0.00,Rain,Light Rain,350,2013-04-19 19:38:00
2:56 PM,54.0,48.0,80,29.95,10.0,North,15.0,-,0.00,,Mostly Cloudy,360,2013-04-19 19:56:00
3:45 PM,53.6,48.2,82,29.99,10.0,NNW,11.5,-,N/A,,Overcast,340,2013-04-19 20:45:00
3:56 PM,53.1,46.9,80,29.97,10.0,NNW,12.7,-,N/A,,Overcast,330,2013-04-19 20:56:00
4:56 PM,52.0,48.0,86,30.00,10.0,NNW,5.8,-,N/A,Rain,Rain,330,2013-04-19 21:56:00
5:37 PM,51.8,48.2,88,30.02,10.0,NE,6.9,-,N/A,Rain,Light Rain,50,2013-04-19 22:37:00
5:56 PM,51.1,48.0,89,29.99,10.0,North,6.9,-,N/A,Rain,Light Rain,360,2013-04-19 22:56:00
6:56 PM,51.1,48.0,89,30.04,10.0,Calm,Calm,-,N/A,Rain,Light Rain,0,2013-04-19 23:56:00
7:56 PM,51.1,48.9,92,30.05,10.0,Calm,Calm,-,N/A,,Partly Cloudy,0,2013-04-20 00:56:00
8:17 PM,51.8,48.2,88,30.09,10.0,NNW,3.5,-,N/A,,Mostly Cloudy,330,2013-04-20 01:17:00
8:38 PM,51.8,48.2,88,30.11,10.0,Calm,Calm,-,N/A,,Scattered Clouds,0,2013-04-20 01:38:00
8:43 PM,51.8,48.2,88,30.12,10.0,Calm,Calm,-,N/A,,Mostly Cloudy,0,2013-04-20 01:43:00
8:56 PM,51.1,48.9,92,30.08,10.0,Calm,Calm,-,N/A,,Mostly Cloudy,0,2013-04-20 01:56:00
9:12 PM,51.8,48.2,88,30.13,10.0,Calm,Calm,-,N/A,,Scattered Clouds,0,2013-04-20 02:12:00
9:56 PM,51.1,48.0,89,30.11,10.0,Calm,Calm,-,N/A,,Clear,0,2013-04-20 02:56:00
10:56 PM,50.0,48.0,93,30.11,10.0,West,3.5,-,N/A,,Clear,280,2013-04-20 03:56:00
11:56 PM,48.9,46.9,93,30.12,7.0,Calm,Calm,-,N/A,,Clear,0,2013-04-20 04:56:00